Location: Ailingen
(47.6833°N, 9.5000°E)
Time: 06:56:06
(UTC+00:00)

SPOT 1/Viking Rocket - Pass Details

Date: 18 November 2025
Orbit: 773 x 789 km, 98.2° (Epoch: 13 December)

Event Time Altitude Azimuth Distance (km) Brightness Sun altitude
Rises 16:39:09 0° 138° (SE) 3,260 6.5 -9.7°
Reaches altitude 10° 16:41:37 10° 130° (SE) 2,339 5.7 -10.1°
Maximum altitude 16:46:15 35° 66° (ENE) 1,252 4.1 -10.8°
Drops below altitude 10° 16:50:57 10° 2° (N) 2,361 5.9 -11.6°
Sets 16:53:26 0° 353° (N) 3,295 6.7 -12.0°
